RH
74 81 76 72 73 74 78 79 77 79 82 78 74 74 74 74 72 71 75 72 76 78
63 63 66 66 69 72 72 66 67 75 79 82 77 74 72 73 70 68 71 75 75 79
59 61 63 66 66 68 69 68 71 75 81 84 83 80 77 77 73 70 73 71 74 78
62 62 63 67 68 70 72 73 76 78 82 83 84 83 83 81 76 74 73 71 70 71
62 62 63 63 64 65 68 72 75 77 81 82 81 83 85 85 77 78 78 76 74 73
60 61 62 63 63 63 65 65 67 69 73 74 76 80 81 84 86 86 84 80 77 74
61 62 64 65 66 67 68 70 70 69 67 68 69 71 74 76 82 86 84 82 82 78
61 61 64 65 68 68 69 69 72 72 71 73 72 66 75 79 82 85 85 85 83 81
60 61 64 66 69 70 70 72 72 73 76 78 66 70 74 76 88 88 90 93 90 86
60 62 65 66 68 71 73 76 76 77 77 77 76 68 72 77 85 88 93 94 93 88
63 64 66 68 70 73 74 74 76 77 76 77 69 68 71 74 82 85 87 90 91 92
67 66 69 72 74 74 77 76 76 73 76 76 71 72 74 77 84 83 86 82 83 86
65 68 71 72 73 73 73 70 73 70 73 74 75 71 72 77 79 90 88 89 85 78
64 66 66 69 72 71 72 76 80 78 72 74 73 73 70 71 78 87 91 92 92 87
Wind_Speed
3 2 2 3 2 3 3 4 4 5 4 6 6 6 5 3 4 4 5 6 5 3
2 2 2 3 3 3 4 3 5 5 5 5 6 6 6 4 5 5 5 6 5 4
0 1 1 2 4 4 4 4 6 6 5 5 5 5 5 5 5 5 4 4 6 5
2 2 2 2 3 4 4 5 5 5 5 4 5 5 5 6 6 6 6 5 6 7
3 2 2 3 4 4 5 5 5 5 5 5 5 5 5 6 6 6 7 7 6 7
2 2 3 3 4 4 5 5 6 5 6 6 6 5 5 5 6 6 6 6 7 7
3 2 2 3 3 4 4 5 6 6 6 6 6 6 6 6 6 5 5 6 6 7
3 2 2 3 4 5 5 5 6 5 5 6 5 4 6 6 5 5 6 6 6 7
3 3 3 4 5 5 5 6 5 6 6 6 4 9 10 6 4 5 6 7 7 6
4 4 4 4 4 5 6 4 6 6 6 6 6 10 11 9 3 4 5 6 7 7
4 5 4 4 5 5 3 4 5 5 6 6 6 12 12 9 4 4 6 6 7 7
3 4 4 5 6 5 4 5 5 5 6 6 8 12 14 10 4 5 6 6 6 6
3 4 5 6 6 4 4 5 4 7 6 9 8 12 14 10 3 5 5 5 6 12
4 5 6 6 3 4 5 5 5 6 7 7 7 8 12 10 3 4 4 4 5 5
Wind_Direction
212 202 223 237 255 277 280 288 291 296 272 238 232 232 220 209 228 224 237 241 236 241
180 198 252 296 300 291 291 281 300 303 291 264 233 229 212 210 227 225 236 237 239 231
262 359 276 295 299 301 303 310 316 309 303 297 271 249 224 231 237 233 240 237 237 235
278 285 293 311 314 319 320 322 319 310 296 288 285 273 244 239 238 238 245 243 240 241
288 309 339 336 323 330 327 326 323 321 316 304 297 285 261 255 246 236 245 243 245 245
340 2 331 321 324 333 328 321 322 332 326 322 310 301 291 275 269 259 251 245 239 242
249 255 284 298 307 313 313 316 323 321 313 311 309 313 310 305 303 300 291 282 262 250
231 253 280 295 300 312 320 312 311 315 317 319 318 299 307 298 294 298 297 291 283 270
246 270 286 302 304 307 307 308 313 322 320 316 305 311 314 300 284 292 287 288 283 277
264 266 274 285 298 304 305 313 313 308 306 295 288 296 302 291 272 284 278 275 281 290
261 269 289 303 303 302 290 293 292 289 289 296 293 297 298 280 266 274 275 271 273 269
250 272 286 289 286 280 276 282 277 271 281 274 283 286 291 287 264 279 282 287 281 279
252 262 270 266 265 253 237 266 272 284 263 273 279 288 293 285 249 281 291 292 292 308
266 263 261 263 234 258 277 282 284 280 287 270 265 282 290 275 243 255 282 288 297 296